User: anonymous   Login
Location: Unspecified
(0.0000°N, 0.0000°E)
Time: 22:38:42
(UTC+02:00)
Language:

ATLAS V CENTAUR R/B - Orbit

View from above orbital plane
View from above orbital plane
View from above satellite
View from above satellite

Ground track
Ground track

The orbit data is extracted from the following two-line orbital elements,

1 27500U 02038B   14298.18257912  .00012797  00000-0  20606-2 0    67
2 27500 017.7667 205.6035 6943215 098.5236 008.9374 02.72688444 98333
Epoch (UTC): 25 October 2014 04:22:54
Eccentricity: 0.6943215
inclination: 17.7667°
perigee height: 237 km
apogee height: 30289 km
right ascension of ascending node: 205.6035°
argument of perigee: 98.5236°
revolutions per day: 2.72688444
mean anomaly at epoch: 8.9374°
orbit number at epoch: 9833

The dashed part of the orbit path shows where the satellite is in the earth's shadow,  

DLR